Home > Time Zones > World Clock > Weather > Russia > Ufa > Past weeks

Flag for Russia Weather past 2 weeks in Ufa, Russia

Now
72 °F

Passing clouds.


Feels Like: 75 °F
Forecast: 64 / 85 °F
Wind: 3 mph from Southwest

Location: Ufa

Current Time: May 31, 2015 at 12:50:03 AM

Latest Report: May 31, 2015 at 12:00 AM


Visibility: N/A

Pressure: 30.09 "Hg

Humidity: 69%

Dew point: 61 °F

Location of UfaLocation

Historic Weather in Ufa — Graph

°F

Ufa temperature yesterday

Maximum temperature yesterday: 88 °F (at 3:00 PM)
Minimum temperature yesterday: 57 °F (at 4:30 AM)
Average temperature yesterday: 75 °F

Past Weeks' High & Low Weather Summary

 TemperatureHumidityPressure
High88 °F (May 30, 3:00 PM)100% (May 16, 12:30 AM)30.15 "Hg (May 16, 12:30 AM)
Low41 °F (May 19, 4:00 AM)27% (May 22, 5:00 PM)29.36 "Hg (May 17, 11:30 AM)
Average62 °F71%29.84 "Hg
* Reported May 15 11:00 PM — May 30 11:30 PM, Ufa, Weather by CustomWeather, © 2015

Note: Actual official high and low records may vary slightly from our data, if they occured in-between our weather recording intervals... More about our weather records

Advertising

Ufa weather history for previous 24 hours

 ConditionsComfort  
Time TempWeatherWind HumidityBarometerVisibility
11:30 PM
Sat, May 30
72 °FPartly sunny.3 mph69%30.09 "HgN/A
11:00 PM72 °FPartly sunny.1 mph69%30.09 "HgN/A
10:30 PM73 °FPartly sunny.3 mph65%30.09 "HgN/A
10:00 PM77 °FPartly sunny.3 mph61%30.09 "HgN/A
9:30 PM79 °FPartly sunny.3 mph54%30.09 "HgN/A
9:00 PM82 °FPartly sunny.3 mph48%30.07 "HgN/A
8:30 PM84 °FPartly sunny.6 mph48%30.07 "HgN/A
8:00 PM84 °FPartly sunny.6 mph40%30.07 "HgN/A
7:30 PM86 °FBroken clouds.6 mph38%30.07 "HgN/A
7:00 PM86 °FBroken clouds.6 mph38%30.07 "HgN/A
6:30 PM86 °FThundershowers. Broken clouds.6 mph35%30.07 "HgN/A
6:00 PM86 °FBroken clouds.6 mph35%30.07 "HgN/A
5:30 PM88 °FBroken clouds.3 mph31%30.07 "HgN/A
5:00 PM88 °FPassing clouds.3 mph35%30.07 "HgN/A
4:30 PM86 °FPassing clouds.3 mph38%30.07 "HgN/A
4:00 PM88 °FPassing clouds.3 mph33%30.07 "HgN/A
3:30 PM88 °FPassing clouds.6 mph35%30.07 "HgN/A
3:00 PM88 °FSunny.3 mph35%30.07 "Hg10 mi
2:30 PM86 °FPassing clouds.3 mph40%30.09 "HgN/A
2:00 PM86 °FPassing clouds.3 mph33%30.09 "HgN/A
1:30 PM86 °FSunny.3 mph38%30.09 "Hg10 mi
1:00 PM84 °FSunny.3 mph45%30.09 "Hg10 mi
12:30 PM84 °FSunny.3 mph45%30.09 "Hg10 mi
12:00 PM82 °FPassing clouds.6 mph55%30.09 "HgN/A
11:30 AM81 °FPassing clouds.3 mph54%30.09 "HgN/A
11:00 AM81 °FSunny.3 mph58%30.09 "Hg10 mi
10:30 AM79 °FPassing clouds.3 mph58%30.09 "HgN/A
10:00 AM77 °FPassing clouds.3 mph61%30.09 "HgN/A
9:30 AM75 °FPassing clouds.3 mph65%30.09 "HgN/A
9:00 AM72 °FSunny.1 mph69%30.09 "Hg10 mi
8:30 AM70 °FPassing clouds.3 mph73%30.09 "HgN/A
8:00 AM68 °FPassing clouds.3 mph78%30.07 "HgN/A
7:30 AM64 °FSunny.3 mph83%30.07 "Hg10 mi
7:00 AM63 °FSunny.3 mph88%30.07 "Hg10 mi
6:30 AM61 °FPassing clouds.3 mph88%30.07 "HgN/A
6:00 AM59 °FClear.1 mph88%30.07 "Hg10 mi
5:30 AM57 °FClear.No wind94%30.07 "Hg10 mi
5:00 AM57 °FClear.3 mph94%30.07 "Hg10 mi
4:30 AM57 °FClear.1 mph94%30.04 "Hg10 mi
4:00 AM59 °FClear.1 mph88%30.04 "Hg10 mi
3:30 AM59 °FClear.No wind94%30.04 "Hg10 mi
3:00 AM61 °FFog.1 mph88%30.04 "Hg3 mi
2:30 AM61 °FClear.No wind83%30.04 "Hg10 mi
1:30 AM63 °FClear.No wind83%30.04 "Hg10 mi
1:00 AM64 °FClear.1 mph78%30.04 "Hg10 mi
12:30 AM66 °FClear.No wind73%30.04 "Hg10 mi
12:00 AM64 °FClear.No wind73%30.01 "Hg10 mi
Weather by CustomWeather, © 2015

See weather overviewHow to use our weather pages